Weather History for Stuttgart, AR

Change the Weather History Date:

Sunday, August 11, 2013

  Actual Average Record
Temperature  
Mean Temperature 86 °F -  
Max Temperature 96 °F 87 °F 102 °F (1999)
Min Temperature 75 °F 68 °F 62 °F (2012)
Cooling Degree Days 20    
Growing Degree Days 36 (Base 50)    
Moisture  
Dew Point 73 °F    
Average Humidity 74    
Maximum Humidity 94    
Minimum Humidity 44    
Precipitation  
Precipitation 0.41 in - - ()
Sea Level Pressure  
Sea Level Pressure 30.07 in    
Wind  
Wind Speed 6 mph (ENE)    
Max Wind Speed 14 mph    
Max Gust Speed 17 mph    
Visibility 10 miles    
Events Thunderstorm    
Averages and records for this station are not official NWS values.
T = Trace of Precipitation, MM = Missing Value Source: NWS Daily Summary

Daily Weather History Graph

Daily Weather History Graph

Search for Another Location

Airport:

Trip Planner

Search our weather history database for the weather conditions in past years. The results will help you decide how hot, cold, wet, or windy it might be!

Date:

Astronomy

Aug. 11, 2013 Rise Set
Actual Time 6:24 AM CDT 7:58 PM CDT
Civil Twilight 5:57 AM CDT 8:25 PM CDT
Nautical Twilight 5:24 AM CDT 8:57 PM CDT
Astronomical Twilight 4:50 AM CDT 9:31 PM CDT
Moon 10:57 AM CDT (8/11) 10:29 PM CDT (8/11)
Length of Visible Light 14h 27m
Length of Day
13h 34m
Waxing Crescent, 22% of the Moon is Illuminated
Aug 11
Waxing Crescent
Aug 14
First Quarter
Aug 20
Full
Aug 28
Last Quarter
Sep 5
New

Hourly Weather History & Observations

Time (CDT) Temp. Heat Index Dew Point Humidity Pressure Visibility Wind Dir Wind Speed Gust Speed Precip Events Conditions
12:15 AM 77.0 °F - 69.8 °F 78% 30.06 in 10.0 mi East 5.8 mph - N/A   Mostly Cloudy
12:35 AM 77.0 °F - 71.6 °F 83% 30.07 in 10.0 mi NNE 6.9 mph - N/A   Partly Cloudy
12:55 AM 75.2 °F - 71.6 °F 89% 30.07 in 10.0 mi NNE 5.8 mph - N/A   Scattered Clouds
1:15 AM 75.2 °F - 71.6 °F 89% 30.08 in 10.0 mi North 5.8 mph - N/A   Scattered Clouds
1:35 AM 77.0 °F - 71.6 °F 83% 30.07 in 10.0 mi ENE 4.6 mph - N/A   Mostly Cloudy
1:55 AM 77.0 °F - 71.6 °F 83% 30.07 in 10.0 mi NE 3.5 mph - N/A   Overcast
2:15 AM 75.2 °F - 73.4 °F 94% 30.07 in 10.0 mi North 4.6 mph - N/A   Mostly Cloudy
2:35 AM 75.2 °F - 73.4 °F 94% 30.07 in 10.0 mi NNE 5.8 mph - N/A   Overcast
2:55 AM 75.2 °F - 73.4 °F 94% 30.06 in 10.0 mi NE 5.8 mph - N/A   Mostly Cloudy
3:15 AM 77.0 °F - 73.4 °F 89% 30.07 in 10.0 mi NE 5.8 mph - N/A   Partly Cloudy
3:35 AM 77.0 °F - 73.4 °F 89% 30.07 in 10.0 mi NE 6.9 mph - N/A   Clear
3:55 AM 75.2 °F - 73.4 °F 94% 30.07 in 10.0 mi NE 6.9 mph - N/A   Clear
4:15 AM 77.0 °F - 73.4 °F 89% 30.07 in 10.0 mi ENE 6.9 mph - N/A   Clear
4:35 AM 77.0 °F - 73.4 °F 89% 30.07 in 10.0 mi ENE 5.8 mph - N/A   Clear
4:55 AM 77.0 °F - 73.4 °F 89% 30.08 in 10.0 mi NE 4.6 mph - N/A   Scattered Clouds
5:15 AM 75.2 °F - 73.4 °F 94% 30.08 in 10.0 mi NNE 3.5 mph - N/A   Scattered Clouds
5:35 AM 75.2 °F - 73.4 °F 94% 30.07 in 10.0 mi ENE 3.5 mph - N/A   Partly Cloudy
5:55 AM 75.2 °F - 73.4 °F 94% 30.07 in 10.0 mi NNE 3.5 mph - N/A   Clear
6:16 AM 75.2 °F - 73.4 °F 94% 30.08 in 10.0 mi NE 3.5 mph - N/A   Partly Cloudy
6:35 AM 75.2 °F - 73.4 °F 94% 30.08 in 10.0 mi NE 3.5 mph - N/A   Mostly Cloudy
6:55 AM 75.2 °F - 73.4 °F 94% 30.08 in 10.0 mi East 3.5 mph - N/A   Mostly Cloudy
7:15 AM 75.2 °F - 73.4 °F 94% 30.09 in 10.0 mi Calm Calm - N/A   Mostly Cloudy
7:35 AM 75.2 °F - 73.4 °F 94% 30.08 in 10.0 mi North 5.8 mph - N/A   Overcast
7:55 AM 77.0 °F - 75.2 °F 94% 30.08 in 10.0 mi East 3.5 mph - N/A   Overcast
8:15 AM 78.8 °F - 75.2 °F 89% 30.08 in 10.0 mi East 5.8 mph - N/A   Mostly Cloudy
8:35 AM 78.8 °F - 75.2 °F 89% 30.08 in 10.0 mi East 5.8 mph - N/A   Partly Cloudy
8:55 AM 80.6 °F 86.2 °F 75.2 °F 84% 30.09 in 10.0 mi SE 4.6 mph - N/A   Mostly Cloudy
9:15 AM 80.6 °F 86.2 °F 75.2 °F 84% 30.10 in 10.0 mi Calm Calm - N/A   Mostly Cloudy
9:35 AM 82.4 °F 89.5 °F 75.2 °F 79% 30.10 in 10.0 mi Calm Calm - N/A   Mostly Cloudy
9:56 AM 84.2 °F 92.3 °F 75.2 °F 74% 30.11 in 10.0 mi Calm Calm - N/A   Mostly Cloudy
10:15 AM 84.2 °F 92.3 °F 75.2 °F 74% 30.11 in 10.0 mi SSW 3.5 mph - N/A   Partly Cloudy
10:35 AM 87.8 °F 97.6 °F 75.2 °F 66% 30.12 in 10.0 mi South 6.9 mph - N/A   Clear
10:55 AM 87.8 °F 97.6 °F 75.2 °F 66% 30.11 in 10.0 mi South 5.8 mph - N/A   Partly Cloudy
11:15 AM 87.8 °F 97.6 °F 75.2 °F 66% 30.11 in 10.0 mi SW 4.6 mph - N/A   Partly Cloudy
11:35 AM 89.6 °F 99.8 °F 75.2 °F 62% 30.11 in 10.0 mi West 4.6 mph - N/A   Clear
11:55 AM 91.4 °F 102.5 °F 75.2 °F 59% 30.10 in 10.0 mi West 6.9 mph - N/A   Clear
12:15 PM 91.4 °F 102.5 °F 75.2 °F 59% 30.10 in 10.0 mi West 6.9 mph - N/A   Clear
12:35 PM 93.2 °F 102.4 °F 73.4 °F 52% 30.09 in 10.0 mi West 5.8 mph - N/A   Clear
12:55 PM 93.2 °F 102.4 °F 73.4 °F 52% 30.09 in 10.0 mi SSW 6.9 mph - N/A   Clear
1:15 PM 93.2 °F 100.5 °F 71.6 °F 49% 30.08 in 10.0 mi West 6.9 mph - N/A   Clear
1:35 PM 93.2 °F 100.5 °F 71.6 °F 49% 30.08 in 10.0 mi WNW 4.6 mph - N/A   Clear
1:55 PM 93.2 °F 100.5 °F 71.6 °F 49% 30.07 in 10.0 mi West 9.2 mph - N/A   Clear
2:15 PM 96.8 °F 105.1 °F 71.6 °F 44% 30.06 in 10.0 mi West 8.1 mph - N/A   Partly Cloudy
2:35 PM 96.8 °F 105.1 °F 71.6 °F 44% 30.05 in 10.0 mi SSW 3.5 mph - N/A   Partly Cloudy
2:55 PM 95.0 °F 103.2 °F 71.6 °F 47% 30.04 in 10.0 mi ESE 3.5 mph - N/A   Clear
3:15 PM 93.2 °F 100.5 °F 71.6 °F 49% 30.03 in 10.0 mi Calm Calm - N/A   Clear
3:35 PM 96.8 °F 105.1 °F 71.6 °F 44% 30.03 in 10.0 mi West 5.8 mph - N/A   Clear
3:55 PM 96.8 °F 105.1 °F 71.6 °F 44% 30.03 in 10.0 mi WSW 3.5 mph - N/A   Partly Cloudy
4:15 PM 96.8 °F 105.1 °F 71.6 °F 44% 30.02 in 10.0 mi SSW 4.6 mph - N/A   Partly Cloudy
4:35 PM 96.8 °F 105.1 °F 71.6 °F 44% 30.01 in 10.0 mi ESE 10.4 mph - N/A   Mostly Cloudy
4:55 PM 93.2 °F 100.5 °F 71.6 °F 49% 30.02 in 10.0 mi SE 9.2 mph - N/A   Overcast
5:15 PM 93.2 °F 100.5 °F 71.6 °F 49% 30.02 in 10.0 mi SE 8.1 mph - N/A   Mostly Cloudy
5:35 PM 93.2 °F 100.5 °F 71.6 °F 49% 30.02 in 10.0 mi ESE 6.9 mph - N/A   Mostly Cloudy
5:55 PM 93.2 °F 100.5 °F 71.6 °F 49% 30.02 in 10.0 mi East 6.9 mph - N/A Thunderstorm Mostly Cloudy
6:15 PM 91.4 °F 98.4 °F 71.6 °F 52% 30.03 in 10.0 mi NNE 13.8 mph 17.3 mph N/A Thunderstorm Thunderstorm
6:35 PM 84.2 °F 89.6 °F 71.6 °F 66% 30.02 in 10.0 mi North 8.1 mph - N/A Thunderstorm Mostly Cloudy
6:55 PM 82.4 °F 88.2 °F 73.4 °F 74% 30.03 in 10.0 mi NE 4.6 mph - N/A   Mostly Cloudy
7:15 PM 84.2 °F 90.9 °F 73.4 °F 70% 30.03 in 10.0 mi ENE 8.1 mph - N/A   Partly Cloudy
7:35 PM 86.0 °F 93.4 °F 73.4 °F 66% 30.04 in 10.0 mi ENE 10.4 mph - N/A   Partly Cloudy
7:55 PM 84.2 °F 90.9 °F 73.4 °F 70% 30.03 in 10.0 mi NE 12.7 mph - N/A Thunderstorm Scattered Clouds
8:15 PM 82.4 °F 88.2 °F 73.4 °F 74% 30.06 in 9.0 mi Calm Calm - 0.06 in Thunderstorm Thunderstorm
8:35 PM 78.8 °F - 71.6 °F 78% 30.08 in 5.0 mi South 3.5 mph - 0.41 in Thunderstorm Thunderstorm
8:55 PM 77.0 °F - 71.6 °F 83% 30.06 in 10.0 mi NE 10.4 mph - N/A Thunderstorm Thunderstorm
9:15 PM 75.2 °F - 71.6 °F 89% 30.05 in 10.0 mi ENE 6.9 mph - N/A Thunderstorm Thunderstorm
9:35 PM 77.0 °F - 73.4 °F 89% 30.06 in 10.0 mi ENE 9.2 mph - N/A Thunderstorm Mostly Cloudy
9:55 PM 78.8 °F - 73.4 °F 83% 30.07 in 10.0 mi ENE 8.1 mph - N/A   Partly Cloudy
10:15 PM 78.8 °F - 73.4 °F 83% 30.06 in 10.0 mi ENE 8.1 mph - N/A   Clear
10:35 PM 78.8 °F - 73.4 °F 83% 30.06 in 10.0 mi East 10.4 mph - N/A   Clear
10:55 PM 77.0 °F - 73.4 °F 89% 30.05 in 10.0 mi East 8.1 mph - N/A   Clear
11:15 PM 77.0 °F - 75.2 °F 94% 30.05 in 10.0 mi East 5.8 mph - N/A   Clear
11:35 PM 77.0 °F - 75.2 °F 94% 30.04 in 10.0 mi East 8.1 mph - N/A   Clear
11:55 PM 78.8 °F - 75.2 °F 89% 30.05 in 10.0 mi East 6.9 mph - N/A   Clear